[[{"header":{"parameterUnit":"m.s-1","parameterCategory":1,"la1":30.2991,"la2":30.254,"lo1":-89.0895,"lo2":-89.0444,"dy":0.0017,"dx":0.0017,"nx":28,"ny":28,"refTime":"2024-02-05T09:00:00:Z","depth":0,"parameterNumber":2,"parameterNumberName":"U-component_of_WINDS"},"data":[0,0,0,0,0,0,0,0,0,0,0,0,0,0,0,0,0,0,0,0,0,0,0,0,0,0,0,0,0,0,0,0,0,0,0,0,0,0,0,0,0,0,0,0,0,0,0,0,0,0,0,0,0,0,0,0,0,0,0.8942,0.8943,0,0.9008,0.9009,0.9009,0.8994,0.8993,0.8991,0.899,0.9061,0.9064,0.9067,0,0,0,0,0,0,0,0,0,0,0,0,0,0.8809,0.8812,0.8942,0.8943,0.8944,0.9008,0.9009,0.901,0.8994,0.8993,0.8991,0.899,0.906,0.9064,0.9068,0,0,0,0,0,0,0,0,0,0,0,0,0,0.887,0.8812,0.8942,0.8944,0.8945,0.9008,0.9009,0.901,0.8994,0.8993,0.8991,0.8989,0.9059,0.9064,0.9068,0.9135,0,0,0.9082,0.9084,0,0,0,0,0,0,0,0,0.8867,0.8875,0.8943,0.8944,0.8945,0.8991,0.8988,0.9052,0.8995,0.8976,0.899,0.8988,0.904,0.9046,0.9062,0.9138,0.9141,0.9083,0.9086,0.9088,0.9089,0,0,0,0,0,0,0,0.8862,0.8872,0.8968,0.8944,0.8945,0.8943,0.895,0.9,0.9018,0.8977,0.8976,0.8984,0.904,0.9058,0.9064,0.9142,0.9083,0.9087,0.909,0.9091,0.928,0.9282,0,0,0,0,0,0,0.8857,0.8869,0.8966,0.897,0.89,0.8947,0.8954,0.8978,0.9017,0.9021,0.8985,0.8983,0.9051,0.9059,0.9066,0.915,0.9087,0.9092,0.9094,0.9278,0.9281,0.9283,0,0,0,0,0,0,0.8854,0.8866,0.8964,0.8919,0.8932,0.8951,0.8978,0.898,0.8998,0.9023,0.9027,0.9,0.905,0.906,0.9119,0.9152,0.9094,0.9098,0.9275,0.9279,0.9282,0.9315,0,0,0,0,0,0,0.885,0.8865,0.8889,0.892,0.8934,0.9013,0.898,0.8983,0.9006,0.9003,0.9038,0.9042,0.9049,0.9112,0.9123,0.9157,0.9102,0.9273,0.9277,0.9281,0.9311,0.9319,0.9326,0,0,0,0,0,0.8845,0.8896,0.889,0.8902,0.8964,0.9015,0.9023,0.9029,0.9008,0.9034,0.9051,0.9041,0.9146,0.9118,0.9131,0.9167,0.927,0.9276,0.9281,0.9308,0.9318,0.9326,0,0,0,0,0,0,0.8869,0.89,0.8894,0.8955,0.8983,0.9012,0.9044,0.9039,0.9073,0.907,0.9076,0.9084,0.9145,0.9161,0.9129,0.9235,0.9206,0.9213,0.9222,0.9232,0.9239,0.9235,0.9106,0,0,0,0,0,0.8881,0.8918,0.8943,0.8995,0.9009,0.9025,0.9047,0.9049,0.9078,0.909,0.911,0.9141,0.9181,0.9207,0.9245,0.9313,0.9323,0.9345,0.9352,0.9358,0.9365,0.9406,0.9417,0.93,0.93,0.93,0,0,0.8907,0.8928,0.8951,0.9001,0.9022,0.9062,0.9034,0.9077,0.9108,0.9097,0.9154,0.917,0.9204,0.9269,0.9299,0.9285,0.94,0.9365,0.9369,0.9373,0.9413,0.9424,0.9434,0.9303,0.9303,0.9302,0,0,0.8975,0.8993,0.904,0.9062,0.9095,0.9105,0.9116,0.9147,0.9158,0.9215,0.9208,0.9245,0.9313,0.9339,0.9361,0.9441,0.9435,0.9453,0.9493,0.9532,0.9542,0.955,0.9582,0.9592,0.946,0.946,0.946,0,0.9003,0.9062,0.9065,0.9109,0.9133,0.9123,0.9173,0.9194,0.9238,0.9256,0.9239,0.9326,0.9348,0.942,0.944,0.9457,0.9472,0.945,0.954,0.9548,0.9556,0.9586,0.9598,0.9462,0.9462,0.9462,0.9461,0,0.9097,0.9138,0.9172,0.9214,0.9241,0.9287,0.93,0.9327,0.9328,0.934,0.9401,0.9427,0.9471,0.9488,0.9489,0.9562,0.9552,0.9538,0.9509,0.957,0.9598,0.9609,0.9465,0.9464,0.9464,0.9463,0,0,0.9181,0.9225,0.9238,0.9258,0.9294,0.9328,0.9375,0.9417,0.9442,0.9473,0.9515,0.9574,0.9561,0.9586,0.959,0.9624,0.969,0.9606,0.9607,0.9623,0.9776,0.9788,0.9801,0.9685,0.9687,0.9689,0.9774,0,0.9254,0.9336,0.9341,0.9417,0.9457,0.9449,0.9491,0.9519,0.9533,0.957,0.9586,0.9628,0.9607,0.9622,0.9656,0.9675,0.9721,0.9668,0.9727,0.9729,0.9721,0.9816,0.9829,0.9907,0.9785,0.9786,0.9788,0,0.935,0.9384,0.9463,0.9496,0.9513,0.955,0.9592,0.9626,0.9659,0.9667,0.9696,0.9695,0.9747,0.9715,0.9787,0.9751,0.9776,0.9789,0.9792,0.98,0.9764,0.9828,0.9932,0.9945,0.9805,0.9804,0.9802,0,0.9408,0.9473,0.9529,0.9547,0.9586,0.9613,0.9631,0.9661,0.9687,0.9724,0.9742,0.9784,0.9808,0.9841,0.9853,0.9828,0.9927,0.9895,0.9937,0.9937,0.996,0.9959,1.0071,0.9971,0.9971,0.9971,0.9971,0,0.949,0.954,0.9556,0.9591,0.9647,0.9654,0.971,0.9726,0.9754,0.9794,0.979,0.9828,0.984,0.9881,0.9891,0.9952,0.9962,0.9972,0.9974,0.9973,0.9973,0.9991,0.9987,0.9974,0.9974,0.9973,0.9972,0,0.9564,0.9577,0.9638,0.967,0.968,0.972,0.9749,0.9784,0.9797,0.9848,0.9861,0.9882,0.993,0.9945,1.0003,1.001,1.0082,1.0078,1.0071,1.0072,1.0114,1.0111,1.0245,1.0264,1.0149,1.015,1.0151,0,0.9617,0.9655,0.9692,0.9718,0.9736,0.9778,0.9805,0.9814,0.9842,0.9884,0.9915,0.9962,1.0001,1.0079,1.0101,1.0146,1.0145,1.0189,1.0152,1.0151,1.015,1.0148,1.0154,1.0197,1.0198,1.0199,1.02,0,0.9711,0.9716,0.9754,0.9795,0.9827,0.986,0.9892,0.9914,0.9928,0.9961,1.001,1.004,1.0099,1.0148,1.0194,1.0215,1.0211,1.0211,1.0224,1.0224,1.022,1.0226,1.0092,1.0208,1.0207,1.0207,1.0206,1.0206,0.9778,0.9813,0.9844,0.9888,0.9913,0.9943,0.9979,0.9996,1.0037,1.0085,1.0088,1.0142,1.0177,1.0239,1.0262,1.0306,1.0294,1.0311,1.0316,1.0321,1.0326,1.0211,1.0314,1.0314,1.0314,1.0313,1.0313,0,0.9874,0.9895,0.9934,0.9979,1.0014,1.0005,1.0041,1.0072,1.0119,1.0151,1.0189,1.0247,1.0294,1.032,1.0368,1.0399,1.0398,1.0411,1.0411,1.0416,1.0333,1.0318,1.0411,1.0411,1.0411,1.0411,1.0411,1.0411,0.9929,0.9988,0.9996,1.0069,1.0089,1.0141,1.0162,1.0192,1.0217,1.0282,1.0321,1.0337,1.0368,1.0418,1.0463,1.0469,1.0488,1.0503,1.0509,1.0431,1.0421,1.0412,1.0399,1.0507,1.0507,1.0589,1.059,1.0591]},{"header":{"parameterUnit":"m.s-1","parameterCategory":1,"la1":30.2991,"la2":30.254,"lo1":-89.0895,"lo2":-89.0444,"dy":0.0017,"dx":0.0017,"nx":28,"ny":28,"refTime":"2024-02-05T09:00:00:Z","depth":0,"parameterNumber":3,"parameterNumberName":"V-component_of_WINDS"},"data":[0,0,0,0,0,0,0,0,0,0,0,0,0,0,0,0,0,0,0,0,0,0,0,0,0,0,0,0,0,0,0,0,0,0,0,0,0,0,0,0,0,0,0,0,0,0,0,0,0,0,0,0,0,0,0,0,0,0,-2.0909,-2.0908,0,-2.086,-2.086,-2.0859,-2.091,-2.0912,-2.0914,-2.0916,-2.0862,-2.0859,-2.0855,0,0,0,0,0,0,0,0,0,0,0,0,0,-2.1041,-2.1039,-2.0909,-2.0908,-2.0907,-2.0861,-2.086,-2.0859,-2.0909,-2.0912,-2.0914,-2.0916,-2.0863,-2.0859,-2.0855,0,0,0,0,0,0,0,0,0,0,0,0,0,-2.0987,-2.1038,-2.0909,-2.0927,-2.0928,-2.0861,-2.086,-2.0859,-2.0909,-2.0912,-2.0915,-2.0918,-2.0864,-2.0859,-2.0855,-2.0765,0,0,-2.084,-2.0837,0,0,0,0,0,0,0,0,-2.099,-2.0982,-2.0925,-2.0926,-2.0927,-2.0894,-2.0887,-2.0827,-2.0908,-2.0916,-2.0916,-2.0919,-2.087,-2.0865,-2.0849,-2.0763,-2.076,-2.0839,-2.0836,-2.0834,-2.0833,0,0,0,0,0,0,0,-2.0994,-2.0985,-2.0889,-2.0924,-2.0925,-2.0937,-2.0932,-2.0876,-2.0877,-2.0916,-2.0919,-2.0913,-2.0871,-2.0854,-2.0848,-2.076,-2.0839,-2.0835,-2.0832,-2.083,-2.0599,-2.0596,0,0,0,0,0,0,-2.0996,-2.0987,-2.0891,-2.0888,-2.0967,-2.0932,-2.0927,-2.0902,-2.0878,-2.0877,-2.0911,-2.0916,-2.0861,-2.0854,-2.0846,-2.0741,-2.0834,-2.083,-2.0827,-2.0602,-2.0598,-2.0595,0,0,0,0,0,0,-2.0999,-2.0987,-2.0893,-2.0939,-2.0928,-2.0926,-2.0898,-2.0899,-2.0882,-2.0874,-2.0874,-2.0893,-2.0863,-2.0853,-2.0786,-2.074,-2.0827,-2.0823,-2.0606,-2.0601,-2.0596,-2.0529,0,0,0,0,0,0,-2.1002,-2.0988,-2.0954,-2.0938,-2.0925,-2.0834,-2.0895,-2.0896,-2.0874,-2.088,-2.0857,-2.0856,-2.0864,-2.0793,-2.0781,-2.0735,-2.0819,-2.061,-2.0604,-2.0598,-2.0535,-2.0522,-2.0511,0,0,0,0,0,-2.1007,-2.0936,-2.0952,-2.094,-2.0884,-2.0831,-2.0823,-2.0835,-2.087,-2.0836,-2.0831,-2.0857,-2.0747,-2.0785,-2.0772,-2.0724,-2.0613,-2.0605,-2.0598,-2.054,-2.0525,-2.0512,0,0,0,0,0,0,-2.0945,-2.0934,-2.0952,-2.0874,-2.0853,-2.084,-2.0797,-2.0818,-2.0786,-2.0793,-2.0807,-2.0802,-2.073,-2.072,-2.0763,-2.0637,-2.0685,-2.0675,-2.0646,-2.0631,-2.0619,-2.0623,-2.0815,0,0,0,0,0,-2.0923,-2.0882,-2.0874,-2.0806,-2.0795,-2.0798,-2.0775,-2.0786,-2.0765,-2.0756,-2.0746,-2.0723,-2.0683,-2.0657,-2.062,-2.0534,-2.053,-2.0495,-2.0483,-2.0473,-2.0464,-2.0419,-2.0403,-2.0571,-2.0571,-2.0571,0,0,-2.0876,-2.0865,-2.0838,-2.0793,-2.0779,-2.0736,-2.079,-2.0741,-2.0709,-2.0748,-2.0684,-2.0676,-2.0651,-2.0575,-2.054,-2.0564,-2.0417,-2.0464,-2.0456,-2.0452,-2.041,-2.0394,-2.038,-2.0566,-2.0567,-2.0568,0,0,-2.0767,-2.0755,-2.0697,-2.0682,-2.066,-2.0663,-2.0649,-2.0632,-2.0629,-2.0565,-2.0594,-2.0555,-2.0487,-2.0468,-2.045,-2.0337,-2.0359,-2.0324,-2.0262,-2.0217,-2.0204,-2.0193,-2.0152,-2.0138,-2.0315,-2.0315,-2.0315,0,-2.0711,-2.0648,-2.0665,-2.0615,-2.0595,-2.063,-2.0571,-2.0555,-2.0521,-2.0506,-2.0534,-2.0449,-2.0435,-2.0355,-2.0328,-2.0311,-2.0296,-2.0326,-2.0205,-2.0194,-2.0183,-2.0145,-2.0129,-2.0311,-2.0311,-2.0312,-2.0312,0,-2.058,-2.0536,-2.0492,-2.0461,-2.0435,-2.0381,-2.0389,-2.0361,-2.0375,-2.0374,-2.0309,-2.0294,-2.0255,-2.0237,-2.0249,-2.0159,-2.0174,-2.0203,-2.0252,-2.0162,-2.0127,-2.0112,-2.0305,-2.0306,-2.0308,-2.0309,0,0,-2.043,-2.041,-2.0393,-2.038,-2.0359,-2.0325,-2.0272,-2.0236,-2.0212,-2.0188,-2.0144,-2.0086,-2.0113,-2.0093,-2.0103,-2.0064,-1.9976,-2.0098,-2.0098,-2.0076,-1.9876,-1.9854,-1.9837,-1.9992,-1.9989,-1.9987,-1.9878,0,-2.0321,-2.0232,-2.0246,-2.0159,-2.0119,-2.0153,-2.0107,-2.0089,-2.0087,-2.0052,-2.005,-2.0009,-2.0048,-2.0036,-1.9999,-1.9995,-1.9936,-2.0003,-1.995,-1.9948,-1.9955,-1.9818,-1.9794,-1.9693,-1.9864,-1.9862,-1.986,0,-2.0182,-2.0155,-2.0065,-2.0052,-2.0035,-1.9994,-1.9963,-1.9929,-1.9909,-1.9911,-1.9888,-1.9906,-1.9853,-1.9904,-1.9831,-1.9876,-1.9856,-1.985,-1.9847,-1.9842,-1.9898,-1.9809,-1.966,-1.9645,-1.9838,-1.984,-1.9842,0,-2.0082,-2.0023,-1.9962,-1.9949,-1.9932,-1.9902,-1.9894,-1.9877,-1.9855,-1.9827,-1.9812,-1.9778,-1.9759,-1.9732,-1.974,-1.9776,-1.9665,-1.9716,-1.9664,-1.9664,-1.9638,-1.964,-1.9484,-1.9626,-1.9626,-1.9626,-1.9627,0,-1.9959,-1.9902,-1.9917,-1.9879,-1.9817,-1.9833,-1.9771,-1.9766,-1.9751,-1.9712,-1.9739,-1.9702,-1.9715,-1.9678,-1.9684,-1.9623,-1.9614,-1.9614,-1.9616,-1.9611,-1.9611,-1.9597,-1.9604,-1.9622,-1.9623,-1.9624,-1.9625,0,-1.9836,-1.9843,-1.9779,-1.9769,-1.9765,-1.9719,-1.971,-1.9674,-1.9676,-1.9627,-1.9616,-1.9618,-1.9576,-1.9582,-1.9535,-1.9539,-1.9463,-1.9474,-1.947,-1.9473,-1.9421,-1.9425,-1.925,-1.9228,-1.9384,-1.9383,-1.9381,0,-1.9757,-1.9714,-1.9701,-1.9678,-1.9667,-1.9629,-1.9607,-1.9622,-1.9598,-1.9573,-1.954,-1.9502,-1.9472,-1.9404,-1.94,-1.9365,-1.9375,-1.9316,-1.9369,-1.9366,-1.9374,-1.9376,-1.9372,-1.9305,-1.9303,-1.9302,-1.93,0,-1.9615,-1.9622,-1.959,-1.9559,-1.9533,-1.9509,-1.9488,-1.9467,-1.948,-1.9452,-1.9411,-1.9388,-1.9341,-1.9303,-1.927,-1.926,-1.9282,-1.9284,-1.927,-1.9264,-1.9264,-1.9264,-1.9441,-1.9287,-1.9289,-1.929,-1.929,-1.9291,-1.9512,-1.9476,-1.9461,-1.9425,-1.9411,-1.9391,-1.9358,-1.9356,-1.9323,-1.9287,-1.9298,-1.9251,-1.9233,-1.9192,-1.9179,-1.9142,-1.9163,-1.9143,-1.9138,-1.9133,-1.9127,-1.9271,-1.9136,-1.9136,-1.9137,-1.9137,-1.9137,0,-1.9372,-1.9364,-1.9331,-1.9302,-1.9274,-1.9299,-1.9277,-1.9252,-1.9211,-1.9193,-1.9164,-1.9117,-1.908,-1.9074,-1.9039,-1.9011,-1.902,-1.9001,-1.9003,-1.9,-1.9109,-1.9125,-1.8994,-1.8994,-1.8994,-1.8994,-1.8994,-1.8994,-1.9295,-1.9237,-1.9242,-1.9176,-1.9169,-1.9125,-1.9111,-1.9092,-1.9079,-1.9026,-1.8996,-1.8993,-1.898,-1.8945,-1.8912,-1.8911,-1.8897,-1.8873,-1.8876,-1.8978,-1.8992,-1.9006,-1.9021,-1.887,-1.887,-1.8771,-1.877,-1.8769]}]]